Valdosta Regional, GA

4:02 AM EDT on April 27, 2018 (GMT -0400)
Valdosta Regional

Weather History for KVLD - January, 2013

Change the Weather History Date:

Thursday, January 3, 2013

  Actual Average Record
Temperature  
Mean Temperature 53 °F 50 °F  
Max Temperature 59 °F 62 °F 78 °F (2015)
Min Temperature 47 °F 39 °F 25 °F (2018)
Degree Days  
Heating Degree Days 12 15  
Month to date heating degree days 17 45  
Since 1 July heating degree days 458 658  
Growing Degree Days 2 (Base 50)    
Moisture  
Dew Point 46 °F    
Average Humidity 69    
Maximum Humidity 86    
Minimum Humidity 51    
Precipitation  
Precipitation 0.05 in 0.24 in 0.86 in (2017)
Month to date precipitation 0.10 0.73  
Year to date precipitation 0.10 0.73  
Sea Level Pressure  
Sea Level Pressure 30.21 in    
Wind  
Wind Speed 4 mph (North)    
Max Wind Speed 14 mph    
Max Gust Speed 20 mph    
Visibility 8 miles    
Events Rain    
T = Trace of Precipitation, MM = Missing Value Source: NWS Daily Summary

Daily Weather History Graph

Daily Weather History Graph

Search for Another Location

Airport or City:

Astronomy

Jan. 03, 2013 Rise Set
Actual Time 7:31 AM EST 5:44 PM EST
Civil Twilight 7:04 AM EST 6:10 PM EST
Nautical Twilight 6:34 AM EST 6:40 PM EST
Astronomical Twilight 6:05 AM EST 7:10 PM EST
Moon 11:50 PM EST (1/3) 11:08 AM EST (1/3)
Length of Visible Light 11h 06m
Length of Day
10h 13m
Waning Gibbous, 65% of the Moon is Illuminated
Jan 3
Waning Gibbous
Jan 4
Last Quarter
Jan 11
New
Jan 18
First Quarter
Jan 26
Full

Hourly Weather History & Observations

Time (EST) Temp. Dew Point Humidity Pressure Visibility Wind Dir Wind Speed Gust Speed Precip Events Conditions
12:53 AM 57.0 °F 52.0 °F 83% 30.12 in 10.0 mi Calm Calm - 0.01 in   Scattered Clouds
1:53 AM 57.0 °F 52.0 °F 83% 30.12 in 10.0 mi Calm Calm - N/A   Overcast
2:53 AM 55.9 °F 52.0 °F 87% 30.12 in 10.0 mi Calm Calm - N/A   Overcast
3:53 AM 55.9 °F 52.0 °F 87% 30.12 in 10.0 mi Calm Calm - N/A   Overcast
4:53 AM 57.0 °F 48.9 °F 74% 30.14 in 10.0 mi Calm Calm - N/A   Overcast
5:53 AM 57.0 °F 46.0 °F 67% 30.15 in 10.0 mi North 8.1 mph - N/A   Overcast
6:53 AM 55.9 °F 45.0 °F 67% 30.17 in 10.0 mi North 8.1 mph - 0.01 in   Overcast
7:53 AM 55.0 °F 43.0 °F 64% 30.18 in 10.0 mi North 9.2 mph - N/A   Overcast
8:53 AM 55.0 °F 37.9 °F 53% 30.22 in 10.0 mi North 8.1 mph - 0.00 in   Overcast
9:53 AM 53.1 °F 41.0 °F 64% 30.25 in 10.0 mi Variable 3.5 mph - 0.00 in Rain Light Rain
10:53 AM 52.0 °F 43.0 °F 71% 30.24 in 10.0 mi North 8.1 mph - 0.01 in   Overcast
11:53 AM 53.1 °F 43.0 °F 69% 30.22 in 10.0 mi NNE 5.8 mph - N/A   Overcast
12:53 PM 53.1 °F 44.1 °F 71% 30.21 in 10.0 mi NNE 3.5 mph - 0.00 in Rain Light Rain
1:53 PM 52.0 °F 46.0 °F 80% 30.20 in 8.0 mi Calm Calm - 0.00 in Rain Light Rain
2:07 PM 51.8 °F 46.4 °F 82% 30.18 in 6.0 mi Calm Calm - 0.00 in Rain Light Rain
2:27 PM 51.8 °F 46.4 °F 82% 30.18 in 3.0 mi Calm Calm - 0.00 in Rain Light Rain
2:50 PM 51.8 °F 46.4 °F 82% 30.18 in 3.0 mi North 9.2 mph - 0.00 in Rain Light Rain
2:53 PM 51.1 °F 46.0 °F 83% 30.20 in 3.0 mi Variable 5.8 mph - 0.00 in Rain Light Rain
3:45 PM 50.0 °F 46.4 °F 87% 30.19 in 2.5 mi Variable 4.6 mph - 0.00 in Rain Rain
3:53 PM 51.1 °F 46.0 °F 83% 30.22 in 2.5 mi North 6.9 mph - N/A Rain Light Rain
4:00 PM 51.8 °F 46.4 °F 82% 30.20 in 4.0 mi North 6.9 mph - N/A Rain Light Rain
4:38 PM 50.0 °F 46.4 °F 87% 30.21 in 4.0 mi Calm Calm - N/A Rain Light Rain
4:53 PM 50.0 °F 46.9 °F 89% 30.22 in 4.0 mi Calm Calm - N/A Rain Light Rain
5:10 PM 50.0 °F 46.4 °F 87% 30.20 in 10.0 mi North 4.6 mph - 0.00 in Rain Light Rain
5:18 PM 50.0 °F 46.4 °F 87% 30.20 in 10.0 mi Calm Calm - 0.00 in Rain Light Rain
5:53 PM 50.0 °F 46.9 °F 89% 30.24 in 10.0 mi Calm Calm - 0.00 in   Overcast
6:15 PM 51.8 °F 46.4 °F 82% 30.22 in 10.0 mi Calm Calm - N/A   Overcast
6:29 PM 51.8 °F 46.4 °F 82% 30.23 in 10.0 mi Calm Calm - N/A   Overcast
6:53 PM 51.1 °F 46.9 °F 86% 30.26 in 10.0 mi Variable 3.5 mph - 0.00 in Rain Light Rain
7:53 PM 50.0 °F 46.0 °F 86% 30.28 in 10.0 mi North 4.6 mph - 0.00 in   Overcast
8:53 PM 50.0 °F 45.0 °F 83% 30.30 in 10.0 mi Variable 3.5 mph - N/A   Overcast
9:00 PM 48.2 °F 44.6 °F 87% 30.27 in 10.0 mi Calm Calm - N/A   Mostly Cloudy
9:53 PM 48.9 °F 44.1 °F 83% 30.29 in 10.0 mi North 6.9 mph - N/A   Scattered Clouds
10:00 PM 48.2 °F 44.6 °F 87% 30.27 in 10.0 mi North 4.6 mph - N/A   Scattered Clouds
10:53 PM 48.0 °F 44.1 °F 86% 30.30 in 9.0 mi North 6.9 mph - 0.01 in   Clear
11:53 PM 46.9 °F 43.0 °F 86% 30.32 in 7.0 mi Variable 4.6 mph - N/A   Clear